www.pogodaiklimat.ru

Погода и климат >> Архив погоды >> Россия >> Калининградская область >> Балтийск


ПОГОДА в Балтийске

  • Прогноз погоды в Балтийске
  • Монитор погоды в Балтийске

АРХИВ ПОГОДЫ в Балтийске

Время (UTC), дата Ветер
(напр.,м/с)
 
Видим.   Явления Облачность Т
(С)
Тd
(С)
f
(%)
Тe
(С)
Тes
(С)
Комфортность P
(гПа)
Po
(гПа)
Тmin
(С)
Tmax
(С)
R
(мм)
R24
(мм)
S
(см)
21 19.03 З 7-8
{9}
20 км 1/1 600 м
[Sc]
+3.4 0.0 78 -3 -3 1026.6 1026.1
00 20.03 З 5-6
{8}
20 км ясно +3.3 +0.6 82 -2 -2 1027.7 1027.2
03 20.03 З 6-8
{8}
20 км 3/3 600 м
[Cu Sc]
+3.1 +0.8 85 -3 -3 1027.8 1027.3 +3.0
06 20.03 ЮЗ 6-7
{8}
20 км 5/5 600 м
[Cu Sc]
+3.3 +1.2 86 -2 -2 1028.8 1028.3 +3.0
09 20.03 ЮЗ 5-7
{9}
20 км 8/0
[Ci fib]
+4.4 +0.8 77 -0 +3 1030.0 1029.5
12 20.03 ЮЗ 6-8
{9}
20 км 6/0
[Cc]
+6.7 -1.0 58 +3 +5 1029.6 1029.0
15 20.03 ЮЗ 6-8
{8}
20 км 10/10 300 м
[Cb cap]
+7.1 +0.1 61 +3 +3 1027.8 1027.2
18 20.03 ЮЗ 5-7
{10}
20 км 10/10 600 м
[Cu Sc]
+6.3 +2.2 75 +2 +2 1027.2 1026.7 +7.6
21 20.03 З 7-9
{11}
4000 м слаб. ливневой дождь 10/10 300 м
[Cb cap]
+5.2 +4.5 95 -0 -0 1027.1 1026.6
00 21.03 З 6-10
{11}
4000 м дымка {ливн. осадки} 10/10 300 м
[Cb cap]
+4.6 +4.0 96 -1 -1 1027.9 1027.4
03 21.03 З 7-9
{12}
1000 м дымка 10/10 300 м
[Cb cap]
+4.0 +3.5 97 -2 -2 1028.3 1027.8 +4.0 0.8
06 21.03 З 5-6
{10}
500 м туман ?/? +3.7 +3.3 97 -2 -2 1028.8 1028.3 +3.7 0.8
09 21.03 З 4-5
{6}
20 км {туман} 9/0
[As trans]
+5.0 +3.7 91 +1 +3 1029.8 1029.3
12 21.03 ЮЗ 6-8
{8}
20 км {туман} 9/9 600 м
[Sc diur, vesp]
+6.2 +4.0 86 +1 +2 1029.1 1028.4
15 21.03 ЮЗ 7-10
{10}
20 км 10/10 600 м
[St]
+6.9 +5.1 88 +2 +2 1027.2 1026.6
18 21.03 З 7-8
{10}
10 км 10/10 600 м
[Sc]
+6.7 +5.3 91 +2 +2 1026.8 1026.2 +7.3
21 21.03 З 11-14
{15}
4000 м дымка 10/10 300 м
[Cb cap]
+6.6 +5.5 93 0 0 1026.8 1026.2
00 22.03 З 9-11
{13}
4000 м дымка 10/10 300 м
[Cb cap]
+5.9 +4.9 93 -0 -0 1027.4 1026.8
03 22.03 З 6-9
{10}
4000 м дымка 10/10 300 м
[Cb cap]
+5.4 +4.8 96 0 0 1028.3 1027.7 +5.4
06 22.03 СЗ 2-5
{10}
10 км 8/3 600 м
[Sc Ci fib]
+5.4 +4.2 92 +3 +3 1030.4 1029.9 +5.2
09 22.03 СВ 4-7
{8}
20 км 1/1 600 м
[Sc]
+9.0 +0.2 54 +6 +10 1033.3 1032.8
12 22.03 С 3-5
{8}
20 км 6/1 600 м
[Cu Sc Ci fib]
+9.2 -1.6 47 +7 +12 1034.3 1033.8
15 22.03 С 3-4
{7}
20 км 1/1 600 м
[Sc]
+7.5 +0.3 60 +5 +6 1034.0 1033.3
18 22.03 В 2-3
{5}
20 км 1/1 600 м
[Cu Sc]
+5.7 -2.4 56 +4 +4 1033.0 1032.4 +10.8
21 22.03 ЮВ 1-3
{4}
20 км ясно +4.3 -0.9 69 +3 +3 1032.0 1031.4
00 23.03 ЮВ 5-6
{7}
20 км ясно +4.4 -3.1 58 0 0 1030.2 1029.6
03 23.03 Ю 8-10
{10}
20 км ясно +4.4 -3.9 55 -1 -1 1028.4 1027.7 +3.9
06 23.03 Ю 7-9
{10}
20 км 5/0
[Ac trans Ci fib]
+4.5 -3.1 58 -1 -1 1027.2 1026.7 +3.9
09 23.03 Ю 6-7
{10}
20 км ясно +7.4 +2.8 73 +3 +6 1025.0 1024.5
12 23.03 ЮЗ 6-8
{11}
10 км 9/0
[Ci fib]
+11.4 +5.9 69 +9 +11 1022.9 1022.4
15 23.03 СЗ 4-7
{8}
4000 м дымка 10/10 600 м
[St]
+7.0 +5.5 90 +3 +3 1022.4 1021.9
18 23.03 З 7-9
{10}
4000 м дымка 10/10 600 м
[St]
+5.8 +4.4 91 0 0 1022.8 1022.3 +12.7
21 23.03 З 9-11
{12}
10 км 9/9 600 м
[Cu Sc]
+5.6 +3.1 84 -0 -0 1023.5 1023.0
00 24.03 З 5-9
{11}
20 км 9/9 600 м
[Cu Sc]
+5.1 +1.2 76 +1 +1 1023.6 1023.1
03 24.03 З 6-9
{11}
20 км 3/1 600 м
[Cu Sc Ci fib]
+4.5 +1.8 83 -1 -1 1023.4 1022.9 +4.5
06 24.03 З 6-8
{10}
20 км 8/0
[Ci fib]
+4.5 +2.1 84 -1 -0 1023.9 1023.4 +4.2
09 24.03 З 6-7
{9}
20 км 8/0
[Ci sp]
+5.2 +2.6 83 0 +3 1024.0 1023.5
12 24.03 З 7-9
{9}
20 км 10/0
[Ac As]
+5.2 +2.8 84 -0 0 1023.0 1022.4
15 24.03 З 4-5
{8}
20 км 9/0
[Ci sp]
+5.0 +2.4 83 +1 +2 1020.5 1019.9
18 24.03 З 4-5
{5}
20 км 8/0
[Ci sp]
+4.3 +2.3 87 -0 -0 1019.0 1018.5 +5.5
21 24.03 ЮЗ 3-5
{6}
20 км ясно +4.1 +2.2 87 0 0 1017.1 1016.6
00 25.03 З 5-6
{7}
20 км ясно +4.0 +1.7 85 -1 -1 1014.3 1013.8
03 25.03 Ю 3-4
{6}
20 км 6/0
[Ci fib]
+3.1 +1.0 86 -1 -1 1012.1 1011.6 +3.0
06 25.03 ЮЗ 3-5
{6}
20 км 3/3 600 м
[Cu Sc]
+3.3 +1.5 88 -1 0 1010.9 1010.4 +3.0
09 25.03 ЮЗ 5-6
{6}
20 км 8/0
[Ci fib]
+4.5 +1.2 79 -0 +3 1010.4 1009.9
12 25.03 З 4-5
{6}
20 км 8/8 600 м
[Cu Sc]
+5.2 +1.7 78 +1 +2 1010.8 1010.3
15 25.03 СЗ 3-6
{6}
20 км 8/8 600 м
[Cu Sc]
+4.8 +1.9 81 +1 +2 1011.5 1011.0
18 25.03 СЗ 4-7
{7}
20 км 9/9 300 м
[Cb cap]
+3.9 +1.7 86 -1 -1 1013.7 1013.1 +6.1
21 25.03 С 4-7
{10}
20 км 6/6 600 м
[Cu Sc]
+3.7 +0.6 80 -1 -1 1015.7 1015.0
00 26.03 С 2-4
{9}
20 км 5/0
[As trans]
+2.5 -3.0 67 -0 -0 1016.6 1016.0
03 26.03 З 6-7
{7}
20 км 8/0
[Ci sp]
+3.1 -1.5 72 -2 -2 1016.1 1015.5 +2.3
06 26.03 ЮЗ 9-11
{11}
20 км 8/8 600 м
[Cu Sc]
+3.0 +0.1 81 -4 -4 1013.5 1013.0 +2.3
09 26.03 З 12-16
{17}
10 км ливневой дождь 9/9 300 м
[Cb cap]
+3.5 +2.1 91 -4 -4 1010.5 1010.0
12 26.03 СЗ 6-12
{16}
20 км {ливн. осадки} 8/4 600 м
[Cu Sc As trans]
+4.9 -0.8 67 0 +1 1012.1 1011.6
15 26.03 СЗ 6-11
{14}
10 км в посл. час ливневой снег 9/9 300 м
[Cb cap]
+2.5 -1.1 77 -3 -3 1014.9 1014.4 1
18 26.03 С 6-11
{14}
20 км {ливн. осадки} 8/8 600 м
[Cu Sc]
+3.1 -0.7 76 -2 -2 1018.1 1017.5 +5.3 1

 

Местоположение метеостанции Балтийск (Калининградская область, Россия): широта 54.65 долгота 19.88 высота над уровнем моря 4 м.

В архиве по умолчанию представлена погода в Балтийске за последнюю неделю. Архивные данные за месяц целиком и за предыдущие месяцы, начиная с января 2011 года, Вы можете получить, выбрав интересующий диапазон дат из раскрывающегося списка и нажав кнопку "Ввод!".


*Определитесь, кто Вы:
робот инопланетянин человек

Внимание! Время в таблицах - всемирное. Для получения местного времени необходимо прибавить поправку, которая равна 2 ч.

Смотрите также архив погоды в соседних городах и на ближайших метеорологических станциях:

Погода в Мамоново (Калининградская область, Россия) (20 км)
Погода в Рыбном Порту (Калининградская область, Россия) (37 км)
Погода в Пионерском (Калининградская область, Россия) (40 км)
Погода в Калининграде (Калининградская область, Россия) (48 км)
Погода в Эльблонге (Польша) (61 км)
Погода в Хеле (Польша) (68 км)
Погода в Рыбачем (Калининградская область, Россия) (84 км)
Погода на Авиабазе Гдыня-Оксывье (Польша) (88 км)
Погода в Железнодорожном (Калининградская область, Россия) (97 км)
Погода в Ольштыне (Польша) (104 км)

Пояснения к столбцам:

Ветер - указаны скорость ветра в м/с - средняя за 10 мин, порывы в срок и между сроками (в фигурных скобках) и направление, откуда дует ветер: С - северный, СВ - северо-восточный, В - восточный, ЮВ - юго-восточный, Ю - южный, ЮЗ - юго-западный, З - западный, СЗ - северо-западный.
Видимость - горизонтальная дальность видимости в метрах или километрах. При видимости от 1 до 10 км при отсутствии осадков обычно наблюдается дымка, при ухудшении видимости до 1 км и менее - туман. В сухую погоду видимость может ухудшаться дымом, пылью или мглою.
Явления - указаны атмосферные явления, наблюдавшиеся в срок или в последний час перед сроком; фигурными скобками обозначены явления, наблюдавшиеся между сроками (за 1-3 часа до срока); квадратными скобками обозначены град или гололедные отложения с указанием их диаметра в мм.
Облачность - указаны через наклонную черту общая и нижняя облачность в баллах и высота нижней границы облаков в метрах; квадратными скобками обозначены формы облаков: Ci - перистые, Cs - перисто-слоистые, Cc - перисто-кучевые, Ac - высококучевые, As - высокослоистые, Sc - слоисто-кучевые, Ns - слоисто-дождевые, Cu - кучевые, Cb - кучево-дождевые. Подробнее классификацию облаков см. в Атласе облаков (PDF).
T - Температура воздуха - температура, измеренная на высоте 2 м над землей.
Td - Температура точки росы - температура, при понижении до которой содержащийся в воздухе водяной пар достигнет насыщения.
f - Относительная влажность воздуха - влажноcть воздуха, измеренная на высоте 2 м над землей.
Te - Эффективная температура - температура, которую ощущает одетый по сезону человек в тени. Характеристика душности погоды. При расчете учитывается влияние влажности воздуха и скорости ветра на теплоощущения человека.
Tes - Эффективная температура на солнце - температура, которую ощущает человек, с поправкой на солнечный нагрев. Характеристика знойности погоды. Зависит от высоты солнца над горизонтом, облачности и скорости ветра. Ночью, в пасмурную погоду, а также при ветре 12 м/с и более поправка равна нулю.
P - Атмосферное давление - приведенное к уровню моря атмосферное давление.
Po - Атмосферное давление - измеренное на уровне метеостанции атмосферное давление.
Tmin - Минимальная температура - минимум температуры воздуха на высоте 2 м над землей.
Tmax - Максимальная температура - максимум температуры воздуха на высоте 2 м над землей.
R - Количество осадков - Количество выпавших осадков за период времени, мм. При наведении курсора мыши на число - период времени, за который выпало указанное количество осадков.
R24 - Количество осадков - Количество выпавших осадков за 24 часа, мм.
S - Снежный покров - Высота снежного покрова, см. При наведении курсора мыши на число - состояние снежного покрова и степень покрытия местности в баллах.